STARLINK-37603, 69846

Orbit data source: Space-Track

STARLINK-37603, 69846 is a payload satellite owned by SpaceX/Seattle (US) in LEO that was launched on Sun, 05 Jul 2026 UTC via an FALCON 9 launch vehicle from the Air Force Eastern Test Range (AFETR). Payload-class satellites include a variety of spacecraft equipped with specific instruments for various scientific and technological missions. These include communications satellites like Starlink; space stations such as the ISS; scientific satellites like the Hubble; Earth observation satellites from companies like Planet Labs, Umbra, and HawkEye 360; GPS; miniature CubeSats for education and research; and military/defense satellites.

Loading next visibility...
Identifier
69846, 2026-154AD
Orbit
LEO
Country
Flag of USUS
Related business
Manufacturer
SpaceX/Seattle
Mission
Operational spacecraft
Bus & Motor
STARLINK V2MO, Unknown motor
Mass
575 kg wet, ~530 kg dry
Launch date (UTC)
2026-07-05 (2 months ago)
Launch vehicle
FALCON 9
Launch site
Air Force Eastern Test Range (AFETR)
Object type
Payload
Rocket body
Debris
Shape & HBR
BOX + PAN, 17.7 m
Radar Cross Section
Large (>1 m²)

Expand to show TLE details & history
Last TLE update: 14 hours ago

TLE from 14 hours ago
0 STARLINK-37603
1 69846U 26154AD  26236.34751695  .00031624  00000-0  91324-3 0  9998
2 69846  53.1607  98.3284 0000271 130.8606 229.2421 15.35414796  9078
Epoch: 2026-08-24T08:20Z
TLE epoch observation values (Epoch: 2026-08-24T08:20:25.464Z)
Latitude
0.00001°
Longitude
0.59179°
Altitude
460.712 km
Speed
7.637 km/s
True Right ascension
06h 33m 18s
True Declination
0° 00' 00"
Sunlit
Object was in daylight at epoch
Visualization orbit readout
Latitude
Unknown
Longitude
Unknown
Altitude
Unknown
Speed
Unknown
Apparent Right ascension
Unknown
Apparent Declination
Unknown
Sunlit
N/A
Visualization observer readout
Local Sidereal Time
13:47:13
Azimuth
Unknown
Elevation
Unknown
Doppler factor
Unknown
Orbital elements
Apogee altitude
460.131 km
Perigee altitude
459.76 km
Semi-major axis
6,838.083 km
Eccentricity
0.00003
Inclination
53.1607°
RAAN
98.3284°
Arg. of periapsis
130.8606°
True anomaly
229.23975°
Mean anomaly
229.2421°
Eccentric anomaly
229.24092°
Mean motion
3.83832 °/min
Orbital period
93.79 mins
BSTAR
0.00091324
Loading maneuver chart data...
Computing Atmospheric mass density...
Loading historical data...
Loading historical data...
Loading historical data...
Loading historical data...
Loading historical data...
Loading historical data...
Loading historical data...

Documentation

Showing up to 5 results
|